Location: Walsall
(52.5862°N, 1.9829°W)
Time: 06:48:42
(UTC+01:00)

X-37B - Visible Passes

Search period start: 25 September 2022 00:00
Search period end: 05 October 2022 00:00
Orbit: 330 x 340 km, 45.0° (Epoch: 02 September)

Date Brightness Start Highest point End Pass type
(mag) Time Alt. Az. Time Alt. Az. Time Alt. Az.
26 Sep 3.0 05:55:47 10° S 05:57:07 13° SSE 05:58:27 10° SE visible
27 Sep 2.6 06:15:16 10° SSW 06:17:13 17° S 06:19:10 10° SE visible
28 Sep 3.0 05:02:51 12° SSE 05:02:51 12° SSE 05:03:52 10° SE visible
29 Sep 2.5 05:22:26 17° S 05:22:38 17° S 05:24:35 10° SE visible
30 Sep 2.3 05:42:01 17° SSW 05:42:48 18° S 05:44:53 10° SE visible
01 Oct 2.4 06:01:37 13° SW 06:02:57 17° S 06:04:54 10° SE visible
02 Oct 3.3 04:50:02 12° SE 04:50:02 12° SE 04:50:20 10° SE visible
02 Oct 2.7 06:21:39 10° SW 06:23:03 13° SSW 06:24:25 10° SSE visible
03 Oct 3.0 05:09:43 13° SSE 05:09:43 13° SSE 05:10:20 10° SE visible
04 Oct 3.0 05:29:30 11° S 05:29:30 11° S 05:29:52 10° SSE visible
